This is the latest recevied weather packets stored in our database for station/object N5ZP. If no packets are shown the sender has not sent any weather packets the latest 10 day(s).
| Time | Temp. | Humidity | Pressure | Rain* | Wind** | Luminosity | Snow |
|---|---|---|---|---|---|---|---|
| 1778030903 | 19.44° C | 73% | 1004 hPa | 0 mm | - | 0 W/m² | - |
| 1778030600 | 19.44° C | 71% | 1004 hPa | 0 mm | - | 1 W/m² | - |
| 1778030297 | 19.44° C | 71% | 1004 hPa | 0 mm | - | 1 W/m² | - |
| 1778029994 | 20° C | 71% | 1003.6 hPa | 0 mm | - | 5 W/m² | - |
| 1778029691 | 20° C | 71% | 1003.6 hPa | 0 mm | - | 5 W/m² | - |
| 1778029389 | 20° C | 71% | 1003.6 hPa | 0 mm | - | 5 W/m² | - |
| 1778029086 | 20° C | 70% | 1003.5 hPa | 0 mm | - | 8 W/m² | - |
| 1778028782 | 20.56° C | 70% | 1003.2 hPa | 0 mm | - | 11 W/m² | - |
| 1778028478 | 21.11° C | 70% | 1002.9 hPa | 0 mm | - | 13 W/m² | - |
| 1778028177 | 21.11° C | 70% | 1002.8 hPa | 0 mm | - | 14 W/m² | - |
| 1778027872 | 21.11° C | 70% | 1003.1 hPa | 0 mm | - | 15 W/m² | - |
| 1778027569 | 21.11° C | 69% | 1003.1 hPa | 0 mm | - | 11 W/m² | - |
| 1778027265 | 21.67° C | 69% | 1003.1 hPa | 0 mm | - | 14 W/m² | - |
| 1778026961 | 21.67° C | 68% | 1002.6 hPa | 0 mm | - | 19 W/m² | - |
| 1778026657 | 21.67° C | 69% | 1002.7 hPa | 0 mm | - | 13 W/m² | - |
| 1778026355 | 21.67° C | 68% | 1002.9 hPa | 0 mm | - | 15 W/m² | - |
| 1778026051 | 22.22° C | 67% | 1002.8 hPa | 0 mm | - | 24 W/m² | - |
| 1778025749 | 22.22° C | 67% | 1002.9 hPa | 0 mm | - | 23 W/m² | - |
| 1778025446 | 22.22° C | 66% | 1003.1 hPa | 0 mm | - | 25 W/m² | - |
| 1778025144 | 22.78° C | 67% | 1002.9 hPa | 0 mm | - | 29 W/m² | - |
| 1778024840 | 22.78° C | 66% | 1002.7 hPa | 0 mm | - | 43 W/m² | - |
| 1778024538 | 22.78° C | 65% | 1002.8 hPa | 0 mm | - | 64 W/m² | - |
| 1778024234 | 23.33° C | 65% | 1002.7 hPa | 0 mm | - | 62 W/m² | - |
| 1778023932 | 23.33° C | 65% | 1002.8 hPa | 0 mm | - | 68 W/m² | - |
| 1778023629 | 23.89° C | 65% | 1002.6 hPa | 0 mm | - | 69 W/m² | - |
* Rain latest hour (hover to see other rain measurements)
** Current wind speed in m/s (hover to see current wind gust speed)